| time (UTC) | temp C | wind direction | speed KPH | gust KPH | rain 1hr cm | rain 24hr cm | rain mn cm | humidity % | barometer mb |
| 20260506231320 | 7 | 82 | 4.8 | 16.1 | 0.00 | 0.00 | 0.00 | 85 | 1012.1 |
| 20260506230319 | 7 | 98 | 4.8 | 12.9 | 0.00 | 0.00 | 0.00 | 85 | 1012.0 |
| 20260506225744 | 7 | 82 | 3.2 | 12.9 | 0.00 | 0.00 | 0.00 | 85 | 1012.0 |
| 20260506224305 | 7 | 70 | 4.8 | 12.9 | 0.00 | 0.00 | 0.00 | 84 | 1012.0 |
| 20260506223751 | 8 | 72 | 8.0 | 14.5 | 0.00 | 0.00 | 0.00 | 83 | 1011.9 |
| 20260506222307 | 8 | 73 | 4.8 | 17.7 | 0.00 | 0.00 | 0.00 | 83 | 1011.8 |
| 20260506221322 | 8 | 81 | 6.4 | 16.1 | 0.00 | 0.00 | 0.00 | 83 | 1011.8 |
| 20260506220336 | 8 | 74 | 9.7 | 16.1 | 0.00 | 0.00 | 0.00 | 83 | 1011.7 |
| 20260506215307 | 8 | 82 | 6.4 | 16.1 | 0.00 | 0.00 | 0.00 | 84 | 1011.7 |
| 20260506214324 | 8 | 80 | 6.4 | 17.7 | 0.00 | 0.00 | 0.00 | 83 | 1011.7 |
| 20260506213749 | 8 | 74 | 4.8 | 17.7 | 0.00 | 0.00 | 0.00 | 83 | 1011.5 |
| 20260506212306 | 8 | 80 | 9.7 | 19.3 | 0.00 | 0.00 | 0.00 | 83 | 1011.4 |
| 20260506211305 | 8 | 96 | 9.7 | 19.3 | 0.00 | 0.00 | 0.00 | 83 | 1011.4 |
| 20260506210744 | 8 | 90 | 4.8 | 17.7 | 0.00 | 0.00 | 0.00 | 83 | 1011.4 |
| 20260506205306 | 8 | 100 | 8.0 | 17.7 | 0.00 | 0.00 | 0.00 | 83 | 1011.3 |
| 20260506204307 | 8 | 84 | 6.4 | 17.7 | 0.00 | 0.00 | 0.00 | 83 | 1011.3 |
| 20260506203306 | 9 | 86 | 9.7 | 17.7 | 0.00 | 0.00 | 0.00 | 82 | 1011.2 |
| 20260506202306 | 9 | 46 | 12.9 | 19.3 | 0.00 | 0.00 | 0.00 | 82 | 1011.2 |
| 20260506201313 | 9 | 28 | 6.4 | 19.3 | 0.00 | 0.00 | 0.00 | 82 | 1011.2 |
| 20260506200306 | 9 | 40 | 8.0 | 17.7 | 0.00 | 0.00 | 0.00 | 81 | 1011.1 |
| 20260506195307 | 9 | 78 | 8.0 | 20.9 | 0.00 | 0.00 | 0.00 | 79 | 1010.9 |
| 20260506194307 | 10 | 39 | 6.4 | 16.1 | 0.00 | 0.00 | 0.00 | 77 | 1010.9 |
| 20260506193306 | 10 | 42 | 6.4 | 19.3 | 0.00 | 0.00 | 0.00 | 76 | 1010.9 |
| 20260506192740 | 10 | 69 | 11.3 | 19.3 | 0.00 | 0.00 | 0.00 | 75 | 1010.8 |
| 20260506191306 | 10 | 49 | 9.7 | 20.9 | 0.00 | 0.00 | 0.00 | 76 | 1010.7 |
| 20260506190307 | 10 | 64 | 8.0 | 16.1 | 0.00 | 0.00 | 0.00 | 76 | 1010.5 |
| 20260506185307 | 10 | 40 | 9.7 | 20.9 | 0.00 | 0.00 | 0.00 | 75 | 1010.4 |
| 20260506184744 | 11 | 67 | 8.0 | 20.9 | 0.00 | 0.00 | 0.00 | 74 | 1010.2 |
| 20260506183307 | 11 | 69 | 9.7 | 17.7 | 0.00 | 0.00 | 0.00 | 73 | 1010.3 |
| 20260506182307 | 11 | 65 | 6.4 | 19.3 | 0.00 | 0.00 | 0.00 | 74 | 1010.2 |
| 20260506181305 | 11 | 55 | 8.0 | 17.7 | 0.00 | 0.00 | 0.00 | 75 | 1010.1 |
| 20260506180308 | 12 | 82 | 6.4 | 22.5 | 0.00 | 0.00 | 0.00 | 74 | 1010.0 |
| 20260506175306 | 12 | 70 | 9.7 | 19.3 | 0.00 | 0.00 | 0.00 | 73 | 1009.8 |
| 20260506174305 | 12 | 41 | 8.0 | 16.1 | 0.00 | 0.00 | 0.00 | 72 | 1009.9 |
| 20260506173306 | 12 | 74 | 8.0 | 19.3 | 0.00 | 0.00 | 0.00 | 71 | 1009.7 |
| 20260506172307 | 12 | 63 | 6.4 | 20.9 | 0.00 | 0.00 | 0.00 | 70 | 1009.7 |
| 20260506171309 | 13 | 71 | 8.0 | 22.5 | 0.00 | 0.00 | 0.00 | 68 | 1009.6 |
| 20260506170306 | 13 | 64 | 14.5 | 19.3 | 0.00 | 0.00 | 0.00 | 66 | 1009.5 |
| 20260506165306 | 13 | 32 | 8.0 | 22.5 | 0.00 | 0.00 | 0.00 | 65 | 1009.5 |
| 20260506164305 | 13 | 72 | 11.3 | 22.5 | 0.00 | 0.00 | 0.00 | 66 | 1009.5 |
| 20260506163749 | 13 | 34 | 9.7 | 20.9 | 0.00 | 0.00 | 0.00 | 61 | 1009.5 |
| 20260506162307 | 13 | 40 | 9.7 | 25.7 | 0.00 | 0.00 | 0.00 | 65 | 1009.5 |
| 20260506161305 | 13 | 59 | 8.0 | 20.9 | 0.00 | 0.00 | 0.00 | 65 | 1009.5 |
| 20260506160805 | 13 | 20 | 8.0 | 20.9 | 0.00 | 0.00 | 0.00 | 63 | 1009.5 |
| 20260506155306 | 14 | 46 | 11.3 | 22.5 | 0.00 | 0.00 | 0.00 | 55 | 1009.5 |
| 20260506154305 | 14 | 84 | 6.4 | 19.3 | 0.00 | 0.00 | 0.00 | 57 | 1009.6 |
| 20260506153305 | 14 | 59 | 11.3 | 22.5 | 0.00 | 0.00 | 0.00 | 56 | 1009.6 |
| 20260506152748 | 14 | 59 | 8.0 | 17.7 | 0.00 | 0.00 | 0.00 | 55 | 1009.6 |
| 20260506151305 | 14 | 61 | 11.3 | 19.3 | 0.00 | 0.00 | 0.00 | 52 | 1009.5 |
| 20260506150307 | 14 | 63 | 11.3 | 27.4 | 0.00 | 0.00 | 0.00 | 52 | 1009.5 |
| 20260506145306 | 14 | 31 | 12.9 | 22.5 | 0.00 | 0.00 | 0.00 | 52 | 1009.5 |
| 20260506144306 | 14 | 61 | 11.3 | 25.7 | 0.00 | 0.00 | 0.00 | 50 | 1009.5 |
| 20260506143306 | 14 | 65 | 14.5 | 27.4 | 0.00 | 0.00 | 0.00 | 49 | 1009.5 |
| 20260506142744 | 14 | 24 | 11.3 | 20.9 | 0.00 | 0.00 | 0.00 | 50 | 1009.5 |
| 20260506141305 | 14 | 45 | 14.5 | 25.7 | 0.00 | 0.00 | 0.00 | 50 | 1009.5 |
| 20260506140306 | 14 | 63 | 11.3 | 27.4 | 0.00 | 0.00 | 0.00 | 49 | 1009.6 |
| 20260506135306 | 14 | 34 | 9.7 | 22.5 | 0.00 | 0.00 | 0.00 | 49 | 1009.5 |
| 20260506134307 | 14 | 46 | 11.3 | 30.6 | 0.00 | 0.00 | 0.00 | 49 | 1009.5 |
| 20260506133306 | 14 | 17 | 16.1 | 30.6 | 0.00 | 0.00 | 0.00 | 47 | 1009.4 |
| 20260506132307 | 15 | 32 | 12.9 | 27.4 | 0.00 | 0.00 | 0.00 | 46 | 1009.3 |
| 20260506131305 | 15 | 51 | 11.3 | 30.6 | 0.00 | 0.00 | 0.00 | 48 | 1009.3 |
| 20260506130306 | 15 | 80 | 14.5 | 25.7 | 0.00 | 0.00 | 0.00 | 48 | 1009.3 |
| 20260506125307 | 15 | 355 | 17.7 | 29.0 | 0.00 | 0.00 | 0.00 | 50 | 1009.2 |
| 20260506124305 | 15 | 91 | 16.1 | 30.6 | 0.00 | 0.00 | 0.00 | 51 | 1009.2 |
| 20260506123306 | 15 | 70 | 11.3 | 27.4 | 0.00 | 0.00 | 0.00 | 50 | 1009.0 |
| 20260506122306 | 15 | 63 | 16.1 | 30.6 | 0.00 | 0.00 | 0.00 | 52 | 1009.0 |
| 20260506121305 | 15 | 19 | 14.5 | 27.4 | 0.00 | 0.00 | 0.00 | 53 | 1008.9 |
| 20260506120306 | 15 | 91 | 19.3 | 30.6 | 0.00 | 0.00 | 0.00 | 51 | 1008.9 |
| 20260506115307 | 15 | 28 | 14.5 | 32.2 | 0.00 | 0.00 | 0.00 | 52 | 1009.0 |
| 20260506114306 | 15 | 57 | 19.3 | 30.6 | 0.00 | 0.00 | 0.00 | 52 | 1009.0 |
| 20260506112816 | 15 | 19 | 19.3 | 32.2 | 0.00 | 0.00 | 0.00 | 47 | 1009.1 |
| 20260506111317 | 14 | 20 | 14.5 | 25.7 | 0.00 | 0.00 | 0.00 | 54 | 1009.0 |
| 20260506110746 | 14 | 90 | 19.3 | 30.6 | 0.00 | 0.00 | 0.00 | 52 | 1009.1 |
| 20260506105306 | 14 | 84 | 16.1 | 29.0 | 0.00 | 0.00 | 0.00 | 53 | 1009.1 |
| 20260506104306 | 14 | 30 | 16.1 | 30.6 | 0.00 | 0.00 | 0.00 | 53 | 1009.1 |
| 20260506103308 | 13 | 34 | 12.9 | 33.8 | 0.00 | 0.00 | 0.00 | 54 | 1009.2 |
| 20260506102756 | 13 | 66 | 16.1 | 29.0 | 0.00 | 0.00 | 0.00 | 55 | 1009.2 |
| 20260506101737 | 13 | 47 | 16.1 | 32.2 | 0.00 | 0.00 | 0.00 | 52 | 1009.2 |
| 20260506100307 | 13 | 86 | 14.5 | 30.6 | 0.00 | 0.00 | 0.00 | 57 | 1009.3 |
| 20260506095306 | 13 | 26 | 19.3 | 37.0 | 0.00 | 0.00 | 0.00 | 56 | 1009.6 |
| 20260506094305 | 12 | 80 | 20.9 | 30.6 | 0.00 | 0.00 | 0.00 | 56 | 1009.4 |
| 20260506093320 | 12 | 327 | 14.5 | 35.4 | 0.00 | 0.00 | 0.00 | 57 | 1009.4 |
| 20260506092306 | 12 | 24 | 17.7 | 30.6 | 0.00 | 0.00 | 0.00 | 58 | 1009.4 |
| 20260506091306 | 12 | 46 | 16.1 | 32.2 | 0.00 | 0.00 | 0.00 | 58 | 1009.5 |
| 20260506090306 | 12 | 27 | 22.5 | 33.8 | 0.00 | 0.00 | 0.00 | 53 | 1009.4 |
| 20260506085306 | 12 | 27 | 11.3 | 27.4 | 0.00 | 0.00 | 0.00 | 60 | 1009.4 |
| 20260506084755 | 12 | 69 | 11.3 | 27.4 | 0.00 | 0.00 | 0.00 | 59 | 1009.3 |
| 20260506083306 | 12 | 34 | 12.9 | 27.4 | 0.00 | 0.00 | 0.00 | 60 | 1009.4 |
| 20260506082306 | 12 | 90 | 16.1 | 29.0 | 0.00 | 0.00 | 0.00 | 59 | 1009.3 |
| 20260506081305 | 12 | 46 | 11.3 | 27.4 | 0.00 | 0.00 | 0.00 | 60 | 1009.3 |
| 20260506080746 | 11 | 66 | 14.5 | 35.4 | 0.00 | 0.00 | 0.00 | 59 | 1009.3 |
| 20260506072306 | 11 | 68 | 12.9 | 30.6 | 0.00 | 0.00 | 0.00 | 57 | 1009.5 |
| 20260506071306 | 11 | 35 | 16.1 | 25.7 | 0.00 | 0.00 | 0.00 | 64 | 1009.4 |
| 20260506070306 | 10 | 62 | 14.5 | 29.0 | 0.00 | 0.00 | 0.00 | 60 | 1009.4 |
| 20260506062306 | 10 | 58 | 8.0 | 29.0 | 0.00 | 0.00 | 0.00 | 68 | 1009.3 |
| 20260506061306 | 10 | 40 | 12.9 | 29.0 | 0.00 | 0.00 | 0.00 | 68 | 1009.3 |
| 20260506060306 | 10 | 5 | 9.7 | 27.4 | 0.00 | 0.00 | 0.00 | 70 | 1009.3 |
| 20260506051306 | 7 | 28 | 6.4 | 14.5 | 0.00 | 0.00 | 0.00 | 80 | 1009.2 |
| 20260506050306 | 7 | 30 | 6.4 | 14.5 | 0.00 | 0.00 | 0.00 | 81 | 1009.2 |
| 20260506044305 | 6 | 5 | 6.4 | 11.3 | 0.00 | 0.00 | 0.00 | 82 | 1009.3 |
| 20260506043306 | 6 | 26 | 6.4 | 14.5 | 0.00 | 0.00 | 0.00 | 82 | 1009.3 |
| 20260506042306 | 6 | 18 | 4.8 | 8.0 | 0.00 | 0.00 | 0.00 | 83 | 1009.2 |
| 20260506041306 | 6 | 26 | 6.4 | 8.0 | 0.00 | 0.00 | 0.00 | 84 | 1009.3 |
| 20260506040306 | 5 | 18 | 4.8 | 8.0 | 0.00 | 0.00 | 0.00 | 86 | 1009.2 |
| 20260506035308 | 5 | 36 | 4.8 | 8.0 | 0.00 | 0.00 | 0.00 | 88 | 1009.3 |
| 20260506034321 | 5 | 46 | 3.2 | 4.8 | 0.00 | 0.00 | 0.00 | 88 | 1009.3 |
| 20260506033306 | 5 | 49 | 3.2 | 4.8 | 0.00 | 0.00 | 0.00 | 89 | 1009.2 |
| 20260506032318 | 4 | 49 | 0.0 | 3.2 | 0.00 | 0.00 | 0.00 | 89 | 1009.3 |
| 20260506031305 | 4 | 49 | 0.0 | 0.0 | 0.00 | 0.00 | 0.00 | 90 | 1009.3 |
| 20260506030750 | 4 | 49 | 0.0 | 0.0 | 0.00 | 0.00 | 0.00 | 90 | 1009.4 |
| 20260506025321 | 4 | 49 | 0.0 | 0.0 | 0.00 | 0.00 | 0.00 | 85 | 1009.4 |
| 20260506024305 | 4 | 49 | 0.0 | 0.0 | 0.00 | 0.00 | 0.00 | 90 | 1009.5 |
| 20260506023310 | 4 | 49 | 0.0 | 0.0 | 0.00 | 0.00 | 0.00 | 89 | 1009.5 |
| 20260506022306 | 5 | 49 | 0.0 | 0.0 | 0.00 | 0.00 | 0.00 | 89 | 1009.5 |
| 20260506021305 | 5 | 49 | 0.0 | 0.0 | 0.00 | 0.00 | 0.00 | 89 | 1009.5 |
| 20260506020307 | 5 | 49 | 0.0 | 0.0 | 0.00 | 0.00 | 0.00 | 90 | 1009.7 |
| 20260506015308 | 5 | 49 | 0.0 | 0.0 | 0.00 | 0.00 | 0.00 | 90 | 1009.7 |
| 20260506014307 | 5 | 49 | 0.0 | 1.6 | 0.00 | 0.00 | 0.00 | 90 | 1009.7 |
| 20260506013305 | 5 | 49 | 1.6 | 4.8 | 0.00 | 0.00 | 0.00 | 90 | 1009.8 |
| 20260506012308 | 5 | 50 | 0.0 | 0.0 | 0.00 | 0.00 | 0.00 | 90 | 1009.7 |
| 20260506011305 | 5 | 50 | 0.0 | 0.0 | 0.00 | 0.00 | 0.00 | 89 | 1009.8 |
| 20260506005752 | 5 | 50 | 0.0 | 0.0 | 0.00 | 0.00 | 0.00 | 89 | 1009.7 |
| 20260506004306 | 6 | 50 | 0.0 | 0.0 | 0.00 | 0.00 | 0.00 | 89 | 1009.8 |
| 20260506003307 | 6 | 50 | 0.0 | 0.0 | 0.00 | 0.00 | 0.00 | 89 | 1009.9 |
| 20260506002306 | 6 | 50 | 0.0 | 0.0 | 0.00 | 0.00 | 0.00 | 89 | 1009.9 |
| 20260506001306 | 6 | 50 | 0.0 | 0.0 | 0.00 | 0.00 | 0.00 | 90 | 1009.8 |
| 20260506000306 | 6 | 50 | 0.0 | 0.0 | 0.00 | 0.00 | 0.00 | 90 | 1009.9 |
| 20260505234309 | 6 | 50 | 0.0 | 0.0 | 0.00 | 0.00 | 0.00 | 89 | 1010.0 |
| 20260505233305 | 6 | 50 | 0.0 | 0.0 | 0.00 | 0.00 | 0.00 | 89 | 1010.1 |
| 20260505232306 | 6 | 50 | 0.0 | 0.0 | 0.00 | 0.00 | 0.00 | 90 | 1009.9 |